Date,TemperatureHighF,TemperatureAvgF,TemperatureLowF,DewpointHighF,DewpointAvgF,DewpointLowF,HumidityHigh,HumidityAvg,HumidityLow,PressureMaxIn,PressureMinIn,WindSpeedMaxMPH,WindSpeedAvgMPH,GustSpeedMaxMPH,PrecipitationSumIn
2013-2-1,59.7,46.4,30.7,39.9,32.0,21.3,70,58,42,30.36,30.14,22,9,22,0.00
2013-2-2,66.6,56.0,46.2,49.4,40.8,33.1,84,59,37,30.29,30.14,18,7,18,0.00
2013-2-3,66.8,56.3,44.1,41.5,34.1,29.2,67,45,26,30.29,29.96,17,6,17,0.00
2013-2-4,69.0,59.1,50.9,58.9,49.4,33.1,96,72,42,29.96,29.76,23,10,23,0.13
2013-2-5,71.3,61.8,54.8,62.9,58.5,53.6,100,90,64,29.97,29.84,13,5,13,0.01
2013-2-6,69.2,61.7,55.6,62.0,58.8,54.5,97,90,71,29.98,29.84,22,11,22,0.00
2013-2-7,76.2,62.9,55.1,62.2,55.5,45.8,97,79,35,30.04,29.77,28,13,28,0.01
2013-2-8,62.9,53.4,43.1,49.3,38.5,29.0,82,59,31,30.21,30.04,22,8,22,0.00
2013-2-9,60.6,49.7,45.0,59.4,47.8,42.3,98,93,83,30.11,29.74,25,14,25,0.04
2013-2-10,68.0,60.3,53.5,65.2,42.6,31.1,98,56,31,29.97,29.63,34,10,35,0.26
2013-2-11,55.4,49.2,46.1,44.4,41.1,35.5,90,74,47,30.13,29.96,20,6,20,0.06
2013-2-12,52.1,47.4,43.3,49.2,45.3,40.3,97,93,86,30.00,29.82,27,7,27,0.34
2013-2-13,54.4,44.4,39.3,40.2,37.2,35.2,89,77,52,30.15,30.00,28,8,28,0.00
2013-2-14,66.3,51.6,39.2,44.5,38.7,34.2,89,64,32,30.10,29.98,20,8,20,0.00
2013-2-15,50.3,46.3,38.5,40.1,32.0,23.3,73,58,40,30.36,30.05,24,9,24,0.00
2013-2-16,55.5,43.0,31.7,31.1,26.9,22.8,71,54,34,30.41,30.17,12,5,12,0.00
2013-2-17,62.1,44.6,38.7,35.7,32.5,30.1,72,64,36,30.17,30.09,29,10,29,0.00
2013-2-18,77.6,62.2,51.8,59.2,47.0,33.8,83,61,25,30.08,29.73,31,15,35,0.00
2013-2-19,60.4,51.1,39.9,34.2,29.8,24.6,69,46,27,30.30,30.08,18,7,18,0.00
2013-2-20,52.7,46.5,43.2,41.4,37.6,31.8,89,72,45,30.14,29.75,25,11,25,0.13
2013-2-21,69.2,55.6,47.3,53.6,41.2,28.0,97,64,22,29.88,29.60,26,12,27,0.11
2013-2-22,48.0,41.2,33.7,40.5,30.7,24.9,85,67,48,30.10,29.88,20,9,20,0.00
2013-2-23,54.7,42.5,30.9,32.8,29.1,25.2,80,60,42,30.07,29.91,18,5,18,0.00
2013-2-24,68.3,53.0,37.3,47.8,39.6,29.8,84,63,34,29.91,29.59,26,12,26,0.00
2013-2-25,59.7,52.2,40.6,54.9,40.5,29.7,90,66,37,29.65,29.45,33,18,33,0.01
2013-2-26,57.1,47.3,39.7,35.6,32.9,31.3,75,59,40,29.88,29.65,33,12,33,0.00
2013-2-27,56.5,46.2,36.1,34.9,29.2,22.1,85,55,27,30.20,29.86,28,11,28,0.00
2013-2-28,57.4,45.2,33.9,31.5,27.3,24.3,79,52,31,30.28,30.15,24,11,24,0.00